This is the latest recevied weather packets stored in our database for station/object AG7BI. If no packets are shown the sender has not sent any weather packets the latest 10 day(s).
| Time | Temp. | Humidity | Pressure | Rain* | Wind** | Luminosity | Snow |
|---|---|---|---|---|---|---|---|
| 1777260052 | 11.11° C | 47% | 1010.7 hPa | 0 mm | - | - | - |
| 1777259752 | 11.67° C | 46% | 1010.4 hPa | 0 mm | - | - | - |
| 1777259452 | 11.67° C | 49% | 1010.3 hPa | 0 mm | - | - | - |
| 1777259152 | 11.67° C | 46% | 1010.4 hPa | 0 mm | - | - | - |
| 1777258852 | 11.67° C | 50% | 1010.3 hPa | 0 mm | - | - | - |
| 1777258552 | 12.22° C | 53% | 1010.1 hPa | 0 mm | - | - | - |
| 1777258252 | 12.22° C | 49% | 1010 hPa | 0 mm | - | - | - |
| 1777257952 | 12.78° C | 49% | 1010.2 hPa | 0 mm | - | - | - |
| 1777257652 | 13.33° C | 46% | 1010.1 hPa | 0 mm | - | - | - |
| 1777257352 | 13.89° C | 45% | 1010.1 hPa | 0 mm | - | - | - |
| 1777257052 | 13.89° C | 44% | 1009.9 hPa | 0 mm | - | - | - |
| 1777256752 | 14.44° C | 41% | 1009.8 hPa | 0 mm | - | - | - |
| 1777256452 | 15° C | 40% | 1010.2 hPa | 0 mm | - | - | - |
| 1777256152 | 15° C | 39% | 1010 hPa | 0 mm | - | - | - |
| 1777255852 | 15° C | 36% | 1009.8 hPa | 0 mm | - | - | - |
| 1777255552 | 15° C | 35% | 1009.8 hPa | 0 mm | - | - | - |
| 1777255252 | 15.56° C | 35% | 1009.8 hPa | 0 mm | - | - | - |
| 1777254952 | 15.56° C | 33% | 1010.1 hPa | 0 mm | - | - | - |
| 1777254652 | 15.56° C | 32% | 1009.9 hPa | 0 mm | - | - | - |
| 1777254352 | 15.56° C | 34% | 1009.8 hPa | 0 mm | - | - | - |
| 1777254052 | 15.56° C | 35% | 1009.9 hPa | 0 mm | - | - | - |
| 1777253752 | 15.56° C | 31% | 1010 hPa | 0 mm | - | - | - |
| 1777253452 | 15.56° C | 33% | 1009.8 hPa | 0 mm | - | - | - |
| 1777253152 | 15.56° C | 30% | 1009.5 hPa | 0 mm | - | - | - |
| 1777252852 | 15.56° C | 30% | 1009.7 hPa | 0 mm | - | - | - |
* Rain latest hour (hover to see other rain measurements)
** Current wind speed in m/s (hover to see current wind gust speed)